LVKFQ KMCO-KPBI

Flight info

Callsign LVKFQ
Flight time N/A
Altitude 23000
Route DDANY3 BORRD CPTAN3
Aircraft CL60/M-SBDE1E2E3FGHIJ1J4J5J7M3RWXYZ/LB1V1D1

Departure

Time N/A
Airport Orlando International Airport (KMCO)

Arrival

Time 2026-04-26 20:09
Airport Palm Beach International Airport (KPBI)
Time Latitude Longitude Altitude Speed Heading
2026-04-26 19:46 27.80932 -80.39590 21690 ft 373 kts 159°
2026-04-26 19:46 27.78277 -80.38322 21131 ft 368 kts 159°
2026-04-26 19:47 27.76042 -80.37255 20676 ft 363 kts 159°
2026-04-26 19:47 27.74498 -80.36517 20358 ft 360 kts 159°
2026-04-26 19:47 27.71394 -80.35034 19714 ft 355 kts 158°
2026-04-26 19:47 27.69154 -80.33964 19247 ft 351 kts 159°
2026-04-26 19:48 27.66921 -80.32897 18785 ft 348 kts 159°
2026-04-26 19:48 27.64666 -80.31819 18335 ft 348 kts 159°
2026-04-26 19:48 27.62402 -80.30738 17907 ft 349 kts 159°
2026-04-26 19:48 27.60123 -80.29650 17417 ft 347 kts 159°
2026-04-26 19:49 27.57946 -80.28612 16968 ft 345 kts 159°
2026-04-26 19:49 27.55725 -80.27551 16506 ft 342 kts 159°
2026-04-26 19:49 27.53500 -80.26489 16048 ft 340 kts 159°
2026-04-26 19:49 27.51319 -80.25449 15594 ft 337 kts 159°
2026-04-26 19:50 27.49142 -80.24410 15145 ft 334 kts 159°
2026-04-26 19:50 27.47018 -80.23398 14705 ft 332 kts 159°
2026-04-26 19:50 27.44868 -80.22373 14354 ft 327 kts 159°
2026-04-26 19:50 27.42749 -80.21363 14268 ft 327 kts 159°
2026-04-26 19:51 27.40633 -80.20356 14268 ft 328 kts 159°
2026-04-26 19:51 27.38552 -80.19365 14263 ft 328 kts 159°
2026-04-26 19:51 27.36502 -80.18389 14270 ft 329 kts 159°
2026-04-26 19:51 27.34383 -80.17381 14252 ft 330 kts 159°
2026-04-26 19:52 27.32242 -80.16364 13758 ft 334 kts 159°
2026-04-26 19:52 27.30072 -80.15334 13123 ft 336 kts 159°
2026-04-26 19:52 27.27900 -80.14301 12491 ft 337 kts 159°
2026-04-26 19:52 27.25806 -80.13309 11887 ft 337 kts 159°
2026-04-26 19:53 27.23661 -80.12275 11259 ft 336 kts 159°
2026-04-26 19:53 27.21534 -80.11243 10632 ft 336 kts 159°
2026-04-26 19:53 27.19405 -80.10211 10011 ft 335 kts 159°
2026-04-26 19:53 27.17261 -80.09171 9356 ft 333 kts 159°
2026-04-26 19:54 27.15159 -80.08152 8681 ft 321 kts 159°
2026-04-26 19:54 27.13106 -80.07153 8074 ft 311 kts 159°
2026-04-26 19:54 27.11132 -80.06175 7436 ft 304 kts 159°
2026-04-26 19:54 27.09222 -80.05228 6911 ft 292 kts 160°
2026-04-26 19:55 27.07412 -80.04328 6536 ft 277 kts 160°
2026-04-26 19:55 27.05683 -80.03471 6149 ft 267 kts 160°
2026-04-26 19:55 27.04103 -80.02688 5808 ft 260 kts 160°
2026-04-26 19:55 27.02445 -80.01868 5460 ft 259 kts 159°
2026-04-26 19:56 27.00781 -80.01046 5115 ft 259 kts 159°
2026-04-26 19:56 26.99116 -80.00223 4776 ft 256 kts 159°
2026-04-26 19:56 26.97512 -79.99433 4423 ft 255 kts 159°
2026-04-26 19:56 26.95843 -79.98955 4068 ft 247 kts 182°
2026-04-26 19:57 26.94188 -79.99326 3957 ft 241 kts 207°
2026-04-26 19:57 26.92775 -80.00339 3962 ft 239 kts 220°
2026-04-26 19:57 26.91450 -80.01500 3959 ft 240 kts 220°
2026-04-26 19:57 26.90115 -80.02685 3962 ft 240 kts 221°
2026-04-26 19:58 26.88974 -80.03713 3962 ft 240 kts 221°
2026-04-26 19:58 26.87760 -80.04820 3969 ft 241 kts 221°
2026-04-26 19:58 26.86423 -80.06058 3968 ft 241 kts 222°
2026-04-26 19:58 26.85135 -80.07267 3959 ft 247 kts 222°
2026-04-26 19:59 26.83777 -80.08562 3971 ft 259 kts 223°
2026-04-26 19:59 26.82394 -80.09901 3971 ft 261 kts 223°
2026-04-26 19:59 26.81034 -80.11237 3963 ft 261 kts 223°
2026-04-26 19:59 26.79654 -80.12610 3965 ft 262 kts 224°
2026-04-26 20:00 26.78297 -80.13978 3837 ft 259 kts 224°
2026-04-26 20:00 26.76998 -80.15303 3479 ft 246 kts 224°
2026-04-26 20:00 26.75765 -80.16578 3116 ft 235 kts 224°
2026-04-26 20:00 26.74692 -80.17859 3007 ft 216 kts 242°
2026-04-26 20:01 26.74393 -80.19491 3006 ft 216 kts 279°
2026-04-26 20:01 26.74888 -80.21072 2980 ft 216 kts 294°
2026-04-26 20:01 26.75528 -80.22594 2931 ft 217 kts 294°
2026-04-26 20:01 26.76176 -80.24122 2955 ft 218 kts 293°
2026-04-26 20:02 26.76687 -80.25742 2957 ft 217 kts 286°
2026-04-26 20:02 26.77098 -80.27361 2968 ft 217 kts 280°
2026-04-26 20:02 26.77252 -80.28894 2968 ft 216 kts 273°
2026-04-26 20:02 26.77305 -80.29923 2967 ft 216 kts 273°
2026-04-26 20:03 26.77379 -80.32272 2962 ft 215 kts 264°
2026-04-26 20:03 26.76761 -80.33808 2968 ft 216 kts 226°
2026-04-26 20:03 26.75410 -80.34560 2963 ft 220 kts 188°
2026-04-26 20:03 26.73867 -80.34452 2965 ft 223 kts 174°
2026-04-26 20:04 26.72319 -80.34109 2964 ft 225 kts 161°
2026-04-26 20:04 26.71083 -80.33041 2968 ft 229 kts 127°
2026-04-26 20:04 26.70416 -80.31416 2958 ft 230 kts 102°
2026-04-26 20:04 26.70130 -80.29649 2960 ft 230 kts 109°
2026-04-26 20:05 26.69418 -80.28029 2924 ft 233 kts 121°
2026-04-26 20:05 26.68605 -80.26472 2551 ft 234 kts 121°
2026-04-26 20:05 26.68074 -80.24770 2146 ft 230 kts 95°
2026-04-26 20:05 26.68056 -80.23036 1982 ft 215 kts 90°
2026-04-26 20:06 26.68098 -80.21519 1990 ft 211 kts 90°
2026-04-26 20:06 26.68145 -80.19801 1972 ft 211 kts 89°
2026-04-26 20:06 26.68221 -80.18115 1643 ft 223 kts 86°
2026-04-26 20:06 26.68368 -80.16443 1213 ft 200 kts 86°
2026-04-26 20:07 26.68449 -80.15022 956 ft 170 kts 92°
2026-04-26 20:07 26.68429 -80.13875 887 ft 130 kts 94°
2026-04-26 20:07 26.68416 -80.12907 613 ft 127 kts 97°
2026-04-26 20:07 26.68362 -80.11977 353 ft 111 kts 96°
2026-04-26 20:08 26.68337 -80.11123 186 ft 105 kts 96°
2026-04-26 20:08 26.68299 -80.10263 63 ft 113 kts 96°
2026-04-26 20:08 26.68263 -80.09416 29 ft 103 kts 97°
2026-04-26 20:08 26.68227 -80.08719 17 ft 66 kts 93°
2026-04-26 20:09 26.68209 -80.08370 17 ft 38 kts 91°
2026-04-26 20:09 26.68198 -80.08093 17 ft 18 kts 99°
2026-04-26 20:09 26.68136 -80.08040 17 ft 11 kts 182°
2026-04-26 20:09 26.68040 -80.08044 17 ft 15 kts 180°
2026-04-26 20:10 26.68021 -80.08044 17 ft 0 kts 180°
2026-04-26 20:10 26.68006 -80.08040 17 ft 4 kts 160°
2026-04-26 20:10 26.67966 -80.08027 17 ft 5 kts 131°
2026-04-26 20:11 26.67964 -80.08015 17 ft 0 kts 84°